, AK

(GMT )
Shemya

Weather History for PASY - October, 2012

Change the Weather History Date:

Thursday, October 4, 2012

  Actual Average Record
Temperature  
Mean Temperature 45 °F -  
Max Temperature 48 °F 47 °F 53 °F (1996)
Min Temperature 42 °F 41 °F 32 °F (1980)
Degree Days  
Heating Degree Days 20    
Moisture  
Dew Point 39 °F    
Average Humidity 80    
Maximum Humidity 96    
Minimum Humidity 55    
Precipitation  
Precipitation 0.00 in - - ()
Sea Level Pressure  
Sea Level Pressure 29.86 in    
Wind  
Wind Speed 30 mph (WNW)    
Max Wind Speed 41 mph    
Max Gust Speed 47 mph    
Visibility 10 miles    
Events Rain    
Averages and records for this station are not official NWS values.
T = Trace of Precipitation, MM = Missing Value Source: NWS Daily Summary

Daily Weather History Graph

Daily Weather History Graph

Search for Another Location

Airport or City:

Trip Planner

Search our weather history database for the weather conditions in past years. The results will help you decide how hot, cold, wet, or windy it might be!

Date:

Astronomy

Oct. 03, 2012 Rise Set
Actual Time 9:29 AM HDT 8:53 PM HDT
Civil Twilight 8:55 AM HDT 9:28 PM HDT
Nautical Twilight 8:15 AM HDT 10:07 PM HDT
Astronomical Twilight 7:34 AM HDT 10:48 PM HDT
Moon 11:01 PM HDT (10/4) 2:39 PM HDT (10/4)
Length of Visible Light 12h 32m
Length of Day
11h 24m
Waning Gibbous, 80% of the Moon is Illuminated
Oct 4
Waning Gibbous
Oct 7
Last Quarter
Oct 15
New
Oct 21
First Quarter
Oct 29
Full

Hourly Weather History & Observations

Time (HDT) Temp. Windchill Dew Point Humidity Pressure Visibility Wind Dir Wind Speed Gust Speed Precip Events Conditions
12:13 AM 44.6 °F 33.2 °F 42.8 °F 93% 29.61 in 10.0 mi West 41.4 mph 47.2 mph N/A Rain Light Rain
12:20 AM 44.6 °F 34.4 °F 42.8 °F 93% 29.61 in 10.0 mi West 32.2 mph 47.2 mph N/A   Overcast
12:49 AM 46.4 °F 36.5 °F 44.6 °F 93% 29.63 in 9.0 mi WNW 34.5 mph 43.7 mph N/A Rain Light Rain
12:56 AM 44.1 °F 33.7 °F 43.0 °F 96% 29.64 in 8.0 mi WNW 32.2 mph 43.7 mph N/A Rain Light Rain
1:44 AM 44.6 °F 34.4 °F 39.2 °F 81% 29.67 in 10.0 mi WNW 32.2 mph 40.3 mph N/A   Scattered Clouds
1:56 AM 45.0 °F 35.1 °F 39.0 °F 80% 29.69 in 10.0 mi WNW 31.1 mph 41.4 mph N/A   Mostly Cloudy
2:56 AM 45.0 °F 35.1 °F 39.0 °F 80% 29.72 in 10.0 mi NW 31.1 mph 35.7 mph N/A Rain Light Rain
3:56 AM 45.0 °F 35.2 °F 39.0 °F 80% 29.75 in 10.0 mi WNW 29.9 mph - N/A   Scattered Clouds
4:15 AM 44.6 °F 33.9 °F 39.2 °F 81% 29.76 in 10.0 mi WNW 35.7 mph 42.6 mph N/A Rain Light Rain
4:26 AM 44.6 °F 35.3 °F 37.4 °F 76% 29.76 in 10.0 mi WNW 26.5 mph - N/A Rain Light Rain
4:56 AM 45.0 °F 34.9 °F 39.0 °F 80% 29.77 in 10.0 mi WNW 32.2 mph 36.8 mph N/A   Partly Cloudy
5:56 AM 45.0 °F 35.2 °F 37.9 °F 76% 29.81 in 10.0 mi WNW 29.9 mph 36.8 mph N/A   Scattered Clouds
6:56 AM 44.1 °F 34.6 °F 39.0 °F 82% 29.83 in 10.0 mi WNW 26.5 mph 36.8 mph N/A   Scattered Clouds
7:56 AM 45.0 °F 35.8 °F 39.9 °F 82% 29.85 in 10.0 mi WNW 26.5 mph 33.4 mph N/A   Partly Cloudy
8:56 AM 44.1 °F 34.6 °F 41.0 °F 89% 29.87 in 10.0 mi WNW 26.5 mph 33.4 mph N/A   Mostly Cloudy
9:52 AM 44.6 °F 34.9 °F 41.0 °F 87% 29.89 in 10.0 mi WNW 28.8 mph 34.5 mph N/A   Overcast
9:56 AM 45.0 °F 36.2 °F 41.0 °F 86% 29.90 in 10.0 mi WNW 24.2 mph 34.5 mph N/A   Mostly Cloudy
10:13 AM 44.6 °F 35.7 °F 41.0 °F 87% 29.90 in 10.0 mi WNW 24.2 mph - N/A   Mostly Cloudy
10:56 AM 44.1 °F 35.0 °F 41.0 °F 89% 29.92 in 10.0 mi West 24.2 mph - N/A   Overcast
11:56 AM 45.0 °F 36.4 °F 42.1 °F 90% 29.94 in 10.0 mi West 23.0 mph - N/A   Scattered Clouds
12:56 PM 46.0 °F 37.6 °F 43.0 °F 89% 29.95 in 10.0 mi WNW 24.2 mph - N/A   Overcast
1:22 PM 46.4 °F 37.9 °F 41.0 °F 81% 29.95 in 10.0 mi WNW 25.3 mph 32.2 mph N/A   Overcast
1:56 PM 48.0 °F - 37.9 °F 68% 29.95 in 10.0 mi WNW 27.6 mph 33.4 mph N/A   Overcast
2:56 PM 48.9 °F - 37.9 °F 66% 29.95 in 10.0 mi WNW 28.8 mph 36.8 mph N/A   Partly Cloudy
3:56 PM 48.0 °F - 37.9 °F 68% 29.97 in 10.0 mi WNW 26.5 mph - N/A   Mostly Cloudy
4:56 PM 48.0 °F - 37.9 °F 68% 29.97 in 10.0 mi WNW 29.9 mph 33.4 mph N/A   Overcast
5:56 PM 48.0 °F - 37.0 °F 66% 29.97 in 10.0 mi WNW 28.8 mph 34.5 mph N/A   Clear
6:56 PM 48.0 °F - 37.9 °F 68% 29.99 in 10.0 mi WNW 20.7 mph - N/A   Scattered Clouds
7:56 PM 46.0 °F 38.8 °F 37.0 °F 71% 29.99 in 10.0 mi West 18.4 mph - N/A   Partly Cloudy
8:56 PM 44.1 °F 38.1 °F 37.0 °F 76% 30.00 in 10.0 mi WNW 11.5 mph - N/A   Mostly Cloudy
9:56 PM 43.0 °F 36.8 °F 37.0 °F 80% 30.01 in 10.0 mi WNW 11.5 mph - N/A   Clear
10:56 PM 42.1 °F 36.1 °F 37.0 °F 82% 30.00 in 10.0 mi NW 10.4 mph - N/A   Partly Cloudy
11:56 PM 43.0 °F 37.2 °F 37.9 °F 82% 30.00 in 10.0 mi WNW 10.4 mph - N/A   Overcast